Date String (YYYY-MM-DD hh:mm:ss) UTC,Instrument flags,Ambient pressure (hPa),Sample flow (lpm),Bypass flow (lpm),Sample temperature (°C),Ambient temperature (°C),ASC tube jacket temperature (°C),LED temperature (°C),Box temperature (°C),Sample RH (%),Span deviation,Mass concentration (μg/m³),Mass concentration (μg/m³),Mass concentration (μg/m³)
DateTimeUTC,F1_M11,P_M11,Q1_M11,Q2_M11,T1_M11,T2_M11,T3_M11,T4_M11,T5_M11,U1_M11,ZSPAN_M11,X2_M11,X0_M11,X1_M11
2022-02-20 08:00:00,,0818.0,5.00,0.00,22.1,21.2,00.0,31.2,23.9,06.2,0000.0,0000.66,0001.03,0000.49
2022-02-20 08:01:00,,0818.0,5.00,0.00,22.1,21.1,00.0,31.2,23.8,06.1,0000.0,0000.66,0001.62,0000.49
2022-02-20 08:02:00,,0818.0,4.99,0.00,22.1,21.1,00.0,31.2,23.8,06.3,0000.0,0000.65,0002.35,0000.48
2022-02-20 08:03:00,,0818.0,4.99,0.00,22.1,21.1,00.0,31.2,23.8,06.3,0000.0,0000.62,0002.32,0000.48
2022-02-20 08:04:00,,0818.0,5.01,0.00,22.1,21.4,00.0,31.2,23.9,06.3,0000.0,0000.62,0002.37,0000.48
2022-02-20 08:05:00,,0818.1,5.00,0.00,22.2,22.3,00.0,31.2,24.1,06.4,0000.0,0000.63,0002.46,0000.47
2022-02-20 08:06:00,,0818.0,4.99,0.00,22.4,23.0,00.0,31.3,24.4,06.5,0000.0,0000.61,0002.42,0000.47
2022-02-20 08:07:00,,0818.0,5.01,0.00,22.4,23.0,00.0,31.3,24.5,06.4,0000.0,0000.58,0002.38,0000.47
2022-02-20 08:08:00,,0818.0,5.01,0.00,22.4,22.7,00.0,31.3,24.4,06.5,0000.0,0000.60,0002.41,0000.46
2022-02-20 08:09:00,,0818.0,5.00,0.00,22.4,22.5,00.0,31.3,24.3,06.3,0000.0,0000.64,0002.49,0000.47
2022-02-20 08:10:00,,0818.1,5.00,0.00,22.4,22.3,00.0,31.3,24.2,06.2,0000.0,0000.65,0002.49,0000.47
2022-02-20 08:11:00,,0818.0,4.99,0.00,22.4,22.1,00.0,31.3,24.1,06.4,0000.0,0000.65,0003.76,0000.45
2022-02-20 08:12:00,,0818.0,5.01,0.00,22.4,21.9,00.0,31.3,24.1,06.2,0000.0,0000.68,0003.64,0000.45
2022-02-20 08:13:00,,0817.9,4.99,0.00,22.3,21.8,00.0,31.3,24.1,06.1,0000.0,0000.69,0003.01,0000.45
2022-02-20 08:14:00,,0817.9,5.01,0.00,22.3,21.7,00.0,31.3,24.1,06.2,0000.0,0000.70,0003.03,0000.45
2022-02-20 08:15:00,,0817.9,4.99,0.00,22.3,21.6,00.0,31.3,24.0,06.4,0000.0,0000.68,0002.91,0000.45
2022-02-20 08:16:00,,0818.0,4.99,0.00,22.3,21.5,00.0,31.3,24.0,06.0,0000.0,0000.68,0004.77,0000.45
2022-02-20 08:17:00,,0818.0,5.01,0.00,22.3,21.4,00.0,31.3,24.0,06.1,0000.0,0000.67,0004.91,0000.44
2022-02-20 08:18:00,,0818.1,4.99,0.00,22.3,21.3,00.0,31.3,24.0,06.1,0000.0,0000.68,0004.98,0000.44
2022-02-20 08:19:00,,0818.2,5.02,0.00,22.2,21.3,00.0,31.3,24.0,06.2,0000.0,0000.67,0004.96,0000.44
2022-02-20 08:20:00,,0818.2,4.99,0.00,22.2,21.2,00.0,31.3,23.9,05.9,0000.0,0000.63,0004.94,0000.43
2022-02-20 08:21:00,,0818.1,5.00,0.00,22.2,21.2,00.0,31.2,23.9,05.9,0000.0,0000.64,0005.13,0000.43
2022-02-20 08:22:00,,0818.1,5.01,0.00,22.2,21.2,00.0,31.2,23.9,05.7,0000.0,0000.64,0003.99,0000.43
2022-02-20 08:23:00,,0818.0,5.00,0.00,22.2,21.1,00.0,31.2,23.9,05.8,0000.0,0000.62,0003.57,0000.43
2022-02-20 08:24:00,,0818.0,4.99,0.00,22.1,21.1,00.0,31.2,23.9,06.2,0000.0,0000.65,0004.11,0000.43
2022-02-20 08:25:00,,0818.0,5.01,0.00,22.1,21.1,00.0,31.2,23.9,06.2,0000.0,0000.66,0004.68,0000.44
2022-02-20 08:26:00,,0818.3,5.00,0.00,22.2,21.6,00.0,31.2,24.0,06.2,0000.0,0000.68,0005.07,0000.45
2022-02-20 08:27:00,,0818.2,5.00,0.00,22.3,22.5,00.0,31.3,24.2,06.3,0000.0,0000.71,0004.51,0000.46
2022-02-20 08:28:00,,0818.2,4.99,0.00,22.5,23.2,00.0,31.3,24.5,06.1,0000.0,0000.72,0004.13,0000.46
2022-02-20 08:29:00,,0818.3,4.99,0.00,22.5,23.0,00.0,31.3,24.5,05.9,0000.0,0000.71,0004.03,0000.46
2022-02-20 08:30:00,,0818.4,5.00,0.00,22.5,22.8,00.0,31.4,24.4,06.1,0000.0,0000.71,0004.03,0000.46
2022-02-20 08:31:00,,0818.2,5.00,0.00,22.5,22.5,00.0,31.4,24.3,05.9,0000.0,0000.71,0004.02,0000.46
2022-02-20 08:32:00,,0818.4,4.99,0.00,22.5,22.3,00.0,31.4,24.3,05.9,0000.0,0000.68,0003.78,0000.46
2022-02-20 08:33:00,,0818.3,5.01,0.00,22.5,22.1,00.0,31.4,24.2,06.2,0000.0,0000.66,0003.60,0000.47
2022-02-20 08:34:00,,0818.3,4.99,0.00,22.4,21.9,00.0,31.4,24.2,05.8,0000.0,0000.63,0003.42,0000.47
2022-02-20 08:35:00,,0818.5,4.99,0.00,22.4,21.8,00.0,31.4,24.1,05.9,0000.0,0000.60,0002.81,0000.47
2022-02-20 08:36:00,,0818.4,5.00,0.00,22.4,21.7,00.0,31.4,24.1,05.9,0000.0,0000.59,0002.29,0000.46
2022-02-20 08:37:00,,0818.2,5.01,0.00,22.4,21.7,00.0,31.4,24.1,06.1,0000.0,0000.57,0001.75,0000.45
2022-02-20 08:38:00,,0818.1,4.99,0.00,22.3,21.6,00.0,31.4,24.1,06.1,0000.0,0000.56,0000.80,0000.45
2022-02-20 08:39:00,,0817.9,5.00,0.00,22.3,21.5,00.0,31.3,24.1,06.1,0000.0,0000.59,0000.97,0000.45
2022-02-20 08:40:00,,0818.0,5.00,0.00,22.3,21.4,00.0,31.3,24.1,05.7,0000.0,0000.61,0001.09,0000.45
2022-02-20 08:41:00,,0818.1,5.03,0.00,22.3,21.3,00.0,31.3,24.1,05.6,0000.0,0000.59,0001.06,0000.45
2022-02-20 08:42:00,,0818.2,4.99,0.00,22.3,21.3,00.0,31.3,24.0,05.7,0000.0,0000.62,0001.21,0000.45
2022-02-20 08:43:00,,0818.3,5.00,0.00,22.3,21.3,00.0,31.3,24.0,05.8,0000.0,0000.64,0001.87,0000.46
2022-02-20 08:44:00,,0818.3,5.01,0.00,22.3,21.3,00.0,31.3,24.0,05.9,0000.0,0000.66,0001.97,0000.46
2022-02-20 08:45:00,,0818.2,4.99,0.00,22.2,21.3,00.0,31.3,23.9,06.1,0000.0,0000.68,0002.00,0000.45
2022-02-20 08:46:00,,0818.1,5.01,0.00,22.2,21.2,00.0,31.3,23.9,06.1,0000.0,0000.71,0002.18,0000.46
2022-02-20 08:47:00,,0818.0,5.00,0.00,22.2,21.1,00.0,31.3,23.9,05.8,0000.0,0000.73,0002.22,0000.45
2022-02-20 08:48:00,,0817.9,4.99,0.00,22.2,21.1,00.0,31.2,23.9,05.5,0000.0,0000.73,0002.25,0000.45
2022-02-20 08:49:00,,0818.0,5.02,0.00,22.2,21.1,00.0,31.2,23.9,05.8,0000.0,0000.76,0002.47,0000.45
2022-02-20 08:50:00,,0818.1,4.99,0.00,22.2,21.7,00.0,31.2,24.0,06.2,0000.0,0000.76,0002.47,0000.45
2022-02-20 08:51:00,,0818.1,5.01,0.00,22.3,22.6,00.0,31.3,24.3,06.3,0000.0,0000.72,0002.25,0000.44
2022-02-20 08:52:00,,0818.1,4.99,0.00,22.5,23.3,00.0,31.4,24.5,05.8,0000.0,0000.72,0002.25,0000.44
2022-02-20 08:53:00,,0818.1,5.00,0.00,22.6,23.1,00.0,31.4,24.6,05.5,0000.0,0000.70,0002.14,0000.43
2022-02-20 08:54:00,,0818.3,5.00,0.00,22.6,22.8,00.0,31.4,24.5,05.4,0000.0,0000.68,0001.59,0000.42
2022-02-20 08:55:00,,0818.4,5.00,0.00,22.6,22.6,00.0,31.4,24.4,05.7,0000.0,0000.65,0001.35,0000.42
2022-02-20 08:56:00,,0818.4,5.01,0.00,22.5,22.4,00.0,31.4,24.3,05.9,0000.0,0000.64,0001.32,0000.42
2022-02-20 08:57:00,,0818.3,5.00,0.00,22.5,22.2,00.0,31.4,24.2,05.8,0000.0,0000.60,0001.14,0000.41
2022-02-20 08:58:00,,0818.4,4.99,0.00,22.5,22.0,00.0,31.4,24.2,05.5,0000.0,0000.56,0001.03,0000.41
2022-02-20 08:59:00,,0818.5,5.01,0.00,22.5,21.9,00.0,31.4,24.2,06.0,0000.0,0000.61,0001.10,0000.41
